Location: Campolattaro
(41.2833°N, 14.7333°E)
Time: 21:48:16
(UTC+00:00)

Cosmos 1295 Rocket - Pass Details

Date: 19 May 2025
Orbit: 942 x 994 km, 82.9° (Epoch: 15 June)

Event Time Altitude Azimuth Distance (km) Brightness Sun altitude
Rises 19:13:38 0° 353° (N) 3,628 8.2 -9.8°
Reaches altitude 10° 19:16:09 10° 355° (N) 2,675 7.5 -10.2°
Maximum altitude 19:22:15 77° 82° (E) 969 4.4 -11.0°
Drops below altitude 10° 19:28:19 10° 169° (SSE) 2,651 6.3 -11.9°
Enters shadow 19:28:54 - 169° (S) 2,875 6.5 -12.0°
